EN

Hourly Weather Almenara

Today, 28 January, Thursday

Time Temperature Precipitation Wind Pressure Humidity
00:00 +20°C° 0 mm 0 mps 744 mmHg 97%
01:00 +20°C° 0 mm 0 mps 744 mmHg 96%
02:00 +20°C° 0 mm 0 mps 743 mmHg 96%
03:00 +20°C° 0 mm 0 mps 743 mmHg 95%
04:00 +20°C° 0 mm 0 mps 743 mmHg 96%
05:00 +19°C° 0 mm 0 mps 743 mmHg 97%
06:00 +19°C° 0 mm 0 mps 743 mmHg 98%
07:00 +22°C° 0 mm 0 mps 744 mmHg 86%
08:00 +26°C° 0 mm 1 mps 744 mmHg 75%
09:00 +29°C° 0 mm 1 mps 745 mmHg 64%
10:00 +30°C° 0 mm 2 mps 744 mmHg 56%
11:00 +32°C° 0 mm 2 mps 744 mmHg 49%
12:00 +34°C° 0 mm 3 mps 743 mmHg 42%
13:00 +34°C° 0 mm 3 mps 742 mmHg 43%
14:00 +34°C° 0 mm 3 mps 742 mmHg 44%
15:00 +35°C° 0 mm 3 mps 741 mmHg 45%
16:00 +33°C° 0.1 mm 3 mps 741 mmHg 53%
17:00 +30°C° 0.1 mm 2 mps 741 mmHg 61%
18:00 +29°C° 0.1 mm 2 mps 741 mmHg 69%
19:00 +27°C° 0.1 mm 2 mps 742 mmHg 77%
20:00 +26°C° 0.1 mm 1 mps 742 mmHg 85%
21:00 +24°C° 0.1 mm 1 mps 743 mmHg 92%
22:00 +23°C° 0 mm 1 mps 743 mmHg 94%
23:00 +23°C° 0 mm 1 mps 743 mmHg 96%

Tomorrow, 29 January, Friday

Time Temperature Precipitation Wind Pressure Humidity
00:00 +20°C° 0 mm 0 mps 743 mmHg 97%
01:00 +20°C° 0 mm 0 mps 743 mmHg 97%
02:00 +20°C° 0 mm 0 mps 743 mmHg 97%
03:00 +20°C° 0 mm 0 mps 743 mmHg 97%
04:00 +20°C° 0 mm 0 mps 743 mmHg 97%
05:00 +20°C° 0 mm 0 mps 744 mmHg 97%
06:00 +21°C° 0 mm 0 mps 744 mmHg 97%
07:00 +23°C° 0 mm 0 mps 744 mmHg 86%
08:00 +27°C° 0 mm 1 mps 745 mmHg 75%
09:00 +29°C° 0 mm 1 mps 745 mmHg 64%
10:00 +30°C° 0.2 mm 2 mps 745 mmHg 62%
11:00 +31°C° 0.2 mm 2 mps 744 mmHg 60%
12:00 +32°C° 0.2 mm 2 mps 744 mmHg 58%
13:00 +32°C° 0.1 mm 2 mps 743 mmHg 53%
14:00 +34°C° 0.1 mm 3 mps 743 mmHg 48%
15:00 +35°C° 0.1 mm 3 mps 742 mmHg 43%
16:00 +32°C° 0 mm 2 mps 742 mmHg 48%
17:00 +31°C° 0 mm 2 mps 742 mmHg 53%
18:00 +29°C° 0 mm 2 mps 742 mmHg 58%
19:00 +28°C° 0 mm 2 mps 742 mmHg 64%
20:00 +26°C° 0 mm 1 mps 743 mmHg 69%
21:00 +24°C° 0 mm 1 mps 743 mmHg 75%
22:00 +23°C° 0 mm 1 mps 744 mmHg 81%
23:00 +23°C° 0 mm 1 mps 744 mmHg 87%

Day after tomorrow, 30 January, Saturday

Time Temperature Precipitation Wind Pressure Humidity
00:00 +20°C° 0 mm 0 mps 744 mmHg 94%
01:00 +20°C° 0 mm 0 mps 744 mmHg 92%
02:00 +21°C° 0 mm 0 mps 744 mmHg 90%
03:00 +21°C° 0 mm 0 mps 744 mmHg 88%
04:00 +21°C° 0 mm 0 mps 744 mmHg 89%
05:00 +21°C° 0 mm 0 mps 745 mmHg 90%
06:00 +21°C° 0 mm 0 mps 745 mmHg 91%
07:00 +26°C° 0 mm 1 mps 745 mmHg 80%
08:00 +28°C° 0 mm 1 mps 745 mmHg 69%
09:00 +30°C° 0 mm 1 mps 746 mmHg 57%
10:00 +31°C° 0 mm 2 mps 745 mmHg 53%
11:00 +34°C° 0 mm 2 mps 745 mmHg 48%
12:00 +35°C° 0 mm 3 mps 744 mmHg 44%
13:00 +34°C° 0.5 mm 3 mps 744 mmHg 53%
14:00 +31°C° 0.5 mm 3 mps 743 mmHg 63%
15:00 +30°C° 0.5 mm 3 mps 742 mmHg 72%
16:00 +29°C° 1.1 mm 3 mps 742 mmHg 76%
17:00 +28°C° 1.1 mm 2 mps 742 mmHg 81%
18:00 +27°C° 1.1 mm 2 mps 742 mmHg 85%
19:00 +26°C° 0.4 mm 1 mps 743 mmHg 88%
20:00 +25°C° 0.4 mm 1 mps 744 mmHg 91%
21:00 +24°C° 0.4 mm 1 mps 744 mmHg 95%
22:00 +23°C° 0 mm 1 mps 744 mmHg 96%
23:00 +23°C° 0 mm 1 mps 744 mmHg 97%

31 January, Sunday

Time Temperature Precipitation Wind Pressure Humidity
00:00 +21°C° 0 mm 0 mps 744 mmHg 98%
01:00 +21°C° 0 mm 0 mps 744 mmHg 98%
02:00 +21°C° 0 mm 0 mps 744 mmHg 98%
03:00 +21°C° 0 mm 0 mps 744 mmHg 98%
04:00 +20°C° 0 mm 0 mps 744 mmHg 98%
05:00 +20°C° 0 mm 0 mps 744 mmHg 98%
06:00 +20°C° 0 mm 0 mps 744 mmHg 97%
07:00 +23°C° 0 mm 0 mps 745 mmHg 88%
08:00 +25°C° 0 mm 0 mps 745 mmHg 78%
09:00 +27°C° 0 mm 0 mps 745 mmHg 68%
10:00 +31°C° 0 mm 1 mps 745 mmHg 61%
11:00 +32°C° 0 mm 1 mps 744 mmHg 53%
12:00 +35°C° 0 mm 2 mps 744 mmHg 46%
13:00 +35°C° 0.1 mm 2 mps 743 mmHg 47%
14:00 +34°C° 0.1 mm 2 mps 743 mmHg 48%
15:00 +34°C° 0.1 mm 3 mps 742 mmHg 49%
16:00 +31°C° 0.5 mm 2 mps 742 mmHg 60%
17:00 +29°C° 0.5 mm 2 mps 742 mmHg 72%
18:00 +27°C° 0.5 mm 1 mps 742 mmHg 84%
19:00 +26°C° 0.1 mm 1 mps 743 mmHg 88%
20:00 +25°C° 0.1 mm 1 mps 743 mmHg 91%
21:00 +24°C° 0.1 mm 1 mps 744 mmHg 94%
22:00 +24°C° 0 mm 1 mps 744 mmHg 95%
23:00 +24°C° 0 mm 1 mps 744 mmHg 96%

1 February, Monday

Time Temperature Precipitation Wind Pressure Humidity
00:00 +21°C° 0 mm 0 mps 744 mmHg 97%
01:00 +21°C° 0.1 mm 0 mps 743 mmHg 97%
02:00 +21°C° 0.1 mm 0 mps 743 mmHg 97%
03:00 +21°C° 0.1 mm 0 mps 743 mmHg 97%
04:00 +21°C° 0 mm 0 mps 743 mmHg 97%
05:00 +21°C° 0 mm 0 mps 743 mmHg 97%
06:00 +21°C° 0 mm 0 mps 744 mmHg 98%
07:00 +23°C° 0.1 mm 0 mps 744 mmHg 90%
08:00 +24°C° 0.1 mm 0 mps 745 mmHg 82%
09:00 +28°C° 0.1 mm 1 mps 745 mmHg 75%
10:00 +30°C° 0 mm 1 mps 745 mmHg 64%
11:00 +32°C° 0 mm 1 mps 744 mmHg 53%
12:00 +35°C° 0 mm 2 mps 744 mmHg 42%
13:00 +35°C° 0 mm 2 mps 743 mmHg 42%
14:00 +35°C° 0 mm 3 mps 742 mmHg 43%
15:00 +35°C° 0 mm 3 mps 742 mmHg 44%
16:00 +33°C° 0.2 mm 3 mps 742 mmHg 55%
17:00 +29°C° 0.2 mm 2 mps 742 mmHg 67%
18:00 +27°C° 0.2 mm 2 mps 742 mmHg 78%
19:00 +26°C° 0 mm 2 mps 743 mmHg 83%
20:00 +25°C° 0 mm 1 mps 743 mmHg 88%
21:00 +24°C° 0 mm 1 mps 744 mmHg 94%
22:00 +23°C° 0 mm 1 mps 744 mmHg 95%
23:00 +23°C° 0 mm 1 mps 744 mmHg 97%

2 February, Tuesday

Time Temperature Precipitation Wind Pressure Humidity
00:00 +21°C° 0 mm 0 mps 744 mmHg 98%
01:00 +21°C° 0 mm 0 mps 743 mmHg 98%
02:00 +21°C° 0 mm 0 mps 743 mmHg 98%
03:00 +21°C° 0 mm 0 mps 743 mmHg 98%
04:00 +21°C° 0 mm 0 mps 743 mmHg 97%
05:00 +21°C° 0 mm 0 mps 744 mmHg 97%
06:00 +21°C° 0 mm 0 mps 744 mmHg 96%
07:00 +23°C° 0 mm 0 mps 745 mmHg 88%
08:00 +26°C° 0 mm 1 mps 745 mmHg 81%
09:00 +28°C° 0 mm 1 mps 745 mmHg 73%
10:00 +29°C° 0 mm 1 mps 745 mmHg 68%
11:00 +30°C° 0 mm 1 mps 744 mmHg 62%
12:00 +31°C° 0 mm 2 mps 744 mmHg 57%
13:00 +32°C° 0 mm 2 mps 743 mmHg 53%
14:00 +32°C° 0 mm 2 mps 743 mmHg 50%
15:00 +34°C° 0 mm 2 mps 742 mmHg 47%
16:00 +32°C° 0 mm 2 mps 742 mmHg 52%
17:00 +30°C° 0 mm 2 mps 743 mmHg 58%
18:00 +29°C° 0 mm 2 mps 743 mmHg 63%
19:00 +27°C° 0 mm 2 mps 743 mmHg 72%
20:00 +26°C° 0 mm 2 mps 744 mmHg 80%
21:00 +24°C° 0 mm 1 mps 745 mmHg 88%
22:00 +24°C° 0 mm 1 mps 745 mmHg 92%
23:00 +23°C° 0 mm 1 mps 745 mmHg 95%
Show more